{"data":{"norad_id":65627,"intl_designator":"2025-210F","name":"STARLINK-35217","alt_names":[],"object_type":"PAYLOAD","status":"ACTIVE","operator":null,"country":"US","launch_date":"2025-09-18","launch_site_code":"AFETR","launch_vehicle":null,"mission":null,"orbit_class":"UNKNOWN","rcs_meters":null,"size_class":null,"mass_kg":null,"dimensions":null,"purposes":["comms"],"wikipedia_slug":null,"has_3d_model":false,"image_url":null,"decayed_at":null,"tle_current":{"epoch":"2026-05-24T21:19:26.158080Z","epoch_age_seconds":84353,"freshness":"FRESH","line1":"1 65627U 25210F   26144.88849720  .00014567  00000+0  50283-3 0  9992","line2":"2 65627  53.1597 313.4135 0000981  82.5872 277.5240 15.30210486 39399","mean_motion":15.30210486,"eccentricity":9.81e-5,"inclination_deg":53.1597,"raan_deg":313.4135,"arg_perigee_deg":82.5872,"mean_anomaly_deg":277.524,"bstar":0.00050283,"rev_number":3939,"period_min":94.104700835255,"perigee_km":474.51144952565,"apogee_km":475.85607105882,"semimajor_km":6853.3207602922,"source":"CELESTRAK","updated_at":"2026-05-25T13:38:20.880312Z"}}}